Showing default

SOLRAD 7A, 730

Orbit data source: Space-Track

SOLRAD 7A, 730 is an American payload satellite in LEO that was launched on Sat, 11 Jan 1964 UTC via a THOR SLV-2A AGENA D launch vehicle from the Air Force Western Test Range (AFWTR). Payload-class satellites include a variety of spacecraft equipped with specific instruments for various scientific and technological missions. These include communications satellites like Starlink; space stations such as the ISS; scientific satellites like the Hubble; Earth observation satellites from companies like Planet Labs, Umbra, and HawkEye 360; GPS; miniature CubeSats for education and research; and military/defense satellites.

Loading next visibility...
Identifier
730, 1964-001D
Orbit
LEO
Country
Flag of USUS
Related business
Manufacturer
NRL
Mission
Spacecraft
Bus & Motor
NRL 24", Unknown motor
Mass
40 kg wet, 40 kg dry
Launch date (UTC)
1964-01-11 (62 years ago)
Launch vehicle
THOR SLV-2A AGENA D
Launch site
Air Force Western Test Range (AFWTR)
Object type
Payload
Rocket body
Debris
Shape & HBR
Unknown
Radar Cross Section
Medium (>0.1 m² and <1 m²)

Expand to show TLE details & history
Last TLE update: 13 hours ago

TLE from 13 hours ago
0 SOLRAD 7A
1 00730U 64001D   25293.06907500  .00000084  00000-0  10033-3 0  9991
2 00730  69.9055  72.5566 0015117 331.0770 143.9307 13.96009708 27125
Epoch: 2025-10-20T01:39Z
TLE epoch observation values (Epoch: 2025-10-20T01:39:28.079Z)
Latitude
58.36377°
Longitude
162.70504°
Altitude
925.791 km
Speed
7.39 km/s
True Right ascension
14h 25m 23s
True Declination
58° 12' 49"
Sunlit
Object was in daylight at epoch
Visualization orbit readout
Latitude
Unknown
Longitude
Unknown
Altitude
Unknown
Speed
Unknown
Apparent Right ascension
Unknown
Apparent Declination
Unknown
Sunlit
N/A
Visualization observer readout
Local Sidereal Time
10:05:24
Azimuth
Unknown
Elevation
Unknown
Doppler factor
Unknown
Orbital elements
Apogee altitude
916.709 km
Perigee altitude
894.687 km
Semi-major axis
7,283.835 km
Eccentricity
0.00151
Inclination
69.9055°
RAAN
72.5566°
Arg. of periapsis
331.077°
True anomaly
144.03253°
Mean anomaly
143.9307°
Eccentric anomaly
143.98163°
Mean motion
3.49143 °/min
Orbital period
103.11 mins
BSTAR
0.00010033
Loading maneuver chart data...
Computing Atmospheric mass density...
Loading historical data...
Loading historical data...
Loading historical data...
Loading historical data...
Loading historical data...
Loading historical data...
Loading historical data...
Other satellites on launch #1 in the year 1964 (1964-01-11 UTC)

Documentation

Showing up to 5 results
|